Location: La Fredeussais
(48.1780°N, 1.3980°W)
Time: 18:48:04
(UTC+00:00)

SPOT 3 Rocket - Pass Details

Date: 09 May 2021
Orbit: 779 x 794 km, 98.7° (Epoch: 21 June)

Event Time Altitude Azimuth Distance (km) Brightness Sun altitude
Exits shadow 20:58:44 - 176° (S) 2,431 5.7 -12.6°
Reaches altitude 10° 20:58:59 10° 177° (S) 2,334 5.6 -12.6°
Maximum altitude 21:04:05 62° 258° (WSW) 879 3.9 -13.2°
Drops below altitude 10° 21:09:13 10° 339° (NNW) 2,345 7.2 -13.8°
Sets 21:11:34 0° 343° (NNW) 3,277 8.0 -14.0°
